Location: City of Clear Lake
(43.1347°N, 93.3740°W)
Time: 12:31:36
(UTC+00:00)

BlueWalker 3 - Pass Details

Date: 18 October 2024
Orbit: 470 x 482 km, 53.2° (Epoch: 05 November)

Event Time Altitude Azimuth Distance (km) Brightness Sun altitude
Exits shadow 11:42:01 - 313° (NW) 1,777 4.3 -9.8°
Reaches altitude 10° 11:42:23 10° 315° (NW) 1,634 4.1 -9.7°
Maximum altitude 11:45:57 46° 30° (NNE) 639 2.7 -9.0°
Drops below altitude 10° 11:49:30 10° 105° (ESE) 1,631 6.2 -8.4°
Sets 11:51:43 0° 111° (ESE) 2,507 7.3 -8.0°
